| time (UTC) | temp F | wind direction | speed knots | gust knots | rain 1hr in | rain 24hr in | rain mn in | humidity % | barometer mb |
| 20260504004018 | 71 | 76 | 3.5 | 8.7 | 0.00 | 0.00 | 0.00 | 63 | 1015.5 |
| 20260504003518 | 71 | 61 | 3.5 | 8.7 | 0.00 | 0.00 | 0.00 | 63 | 1015.6 |
| 20260504003042 | 71 | 64 | 3.5 | 8.7 | 0.00 | 0.00 | 0.00 | 62 | 1015.6 |
| 20260504002516 | 72 | 34 | 2.6 | 6.1 | 0.00 | 0.00 | 0.00 | 61 | 1015.6 |
| 20260504002017 | 72 | 67 | 2.6 | 6.1 | 0.00 | 0.00 | 0.00 | 61 | 1015.4 |
| 20260504001536 | 72 | 59 | 2.6 | 7.0 | 0.00 | 0.00 | 0.00 | 61 | 1015.3 |
| 20260504001019 | 73 | 55 | 2.6 | 7.0 | 0.00 | 0.00 | 0.00 | 60 | 1015.2 |
| 20260504000517 | 73 | 22 | 2.6 | 7.8 | 0.00 | 0.00 | 0.00 | 60 | 1015.2 |
| 20260504000042 | 73 | 82 | 3.5 | 7.8 | 0.00 | 0.00 | 0.00 | 59 | 1015.1 |
| 20260503235517 | 74 | 71 | 2.6 | 5.2 | 0.00 | 0.00 | 0.00 | 58 | 1015.0 |
| 20260503235017 | 74 | 76 | 2.6 | 7.0 | 0.00 | 0.00 | 0.00 | 57 | 1014.9 |
| 20260503234535 | 74 | 35 | 2.6 | 7.0 | 0.00 | 0.00 | 0.00 | 57 | 1014.9 |
| 20260503234017 | 75 | 85 | 4.3 | 9.6 | 0.00 | 0.00 | 0.00 | 56 | 1014.9 |
| 20260503233517 | 75 | 42 | 3.5 | 9.6 | 0.00 | 0.00 | 0.00 | 56 | 1014.9 |
| 20260503233038 | 76 | 71 | 4.3 | 9.6 | 0.00 | 0.00 | 0.00 | 54 | 1014.9 |
| 20260503232516 | 76 | 63 | 5.2 | 8.7 | 0.00 | 0.00 | 0.00 | 54 | 1014.9 |
| 20260503232016 | 77 | 61 | 3.5 | 7.8 | 0.00 | 0.00 | 0.00 | 52 | 1014.8 |
| 20260503231531 | 78 | 59 | 3.5 | 9.6 | 0.00 | 0.00 | 0.00 | 52 | 1014.7 |
| 20260503231019 | 77 | 46 | 2.6 | 9.6 | 0.00 | 0.00 | 0.00 | 52 | 1014.7 |
| 20260503230517 | 78 | 46 | 4.3 | 9.6 | 0.00 | 0.00 | 0.00 | 51 | 1014.7 |
| 20260503230038 | 77 | 47 | 4.3 | 7.8 | 0.00 | 0.00 | 0.00 | 51 | 1014.7 |
| 20260503225516 | 78 | 28 | 4.3 | 7.8 | 0.00 | 0.00 | 0.00 | 51 | 1014.6 |
| 20260503225021 | 78 | 13 | 2.6 | 7.8 | 0.00 | 0.00 | 0.00 | 51 | 1014.7 |
| 20260503224536 | 79 | 74 | 2.6 | 7.0 | 0.00 | 0.00 | 0.00 | 50 | 1014.7 |
| 20260503224017 | 78 | 85 | 4.3 | 9.6 | 0.00 | 0.00 | 0.00 | 50 | 1014.7 |
| 20260503223517 | 79 | 80 | 5.2 | 9.6 | 0.00 | 0.00 | 0.00 | 48 | 1014.7 |
| 20260503223036 | 81 | 80 | 0.9 | 7.8 | 0.00 | 0.00 | 0.00 | 47 | 1014.8 |
| 20260503222516 | 79 | 84 | 3.5 | 7.8 | 0.00 | 0.00 | 0.00 | 49 | 1014.8 |
| 20260503222016 | 80 | 37 | 3.5 | 8.7 | 0.00 | 0.00 | 0.00 | 47 | 1014.8 |
| 20260503221538 | 79 | 71 | 2.6 | 8.7 | 0.00 | 0.00 | 0.00 | 50 | 1014.9 |
| 20260503221018 | 79 | 86 | 5.2 | 8.7 | 0.00 | 0.00 | 0.00 | 50 | 1014.8 |
| 20260503220517 | 79 | 71 | 2.6 | 7.0 | 0.00 | 0.00 | 0.00 | 49 | 1014.7 |
| 20260503220043 | 78 | 113 | 3.5 | 6.1 | 0.00 | 0.00 | 0.00 | 50 | 1014.7 |
| 20260503215517 | 79 | 57 | 1.7 | 8.7 | 0.00 | 0.00 | 0.00 | 50 | 1014.8 |
| 20260503215016 | 80 | 82 | 3.5 | 8.7 | 0.00 | 0.00 | 0.00 | 49 | 1014.7 |
| 20260503214541 | 79 | 74 | 4.3 | 8.7 | 0.00 | 0.00 | 0.00 | 49 | 1014.7 |
| 20260503214016 | 79 | 65 | 4.3 | 9.6 | 0.00 | 0.00 | 0.00 | 50 | 1014.7 |
| 20260503213519 | 80 | 49 | 5.2 | 9.6 | 0.00 | 0.00 | 0.00 | 48 | 1014.7 |
| 20260503213040 | 80 | 35 | 2.6 | 7.8 | 0.00 | 0.00 | 0.00 | 49 | 1014.6 |
| 20260503212517 | 80 | 29 | 3.5 | 9.6 | 0.00 | 0.00 | 0.00 | 49 | 1014.6 |
| 20260503212017 | 80 | 88 | 5.2 | 9.6 | 0.00 | 0.00 | 0.00 | 50 | 1014.5 |
| 20260503211536 | 80 | 101 | 1.7 | 8.7 | 0.00 | 0.00 | 0.00 | 48 | 1014.6 |
| 20260503211016 | 80 | 63 | 2.6 | 7.8 | 0.00 | 0.00 | 0.00 | 48 | 1014.6 |
| 20260503210516 | 80 | 15 | 0.9 | 8.7 | 0.00 | 0.00 | 0.00 | 49 | 1014.7 |
| 20260503210036 | 80 | 30 | 2.6 | 8.7 | 0.00 | 0.00 | 0.00 | 49 | 1014.7 |
| 20260503205517 | 80 | 49 | 3.5 | 8.7 | 0.00 | 0.01 | 0.00 | 48 | 1014.7 |
| 20260503205017 | 81 | 94 | 4.3 | 8.7 | 0.00 | 0.01 | 0.00 | 48 | 1014.8 |
| 20260503204535 | 82 | 84 | 4.3 | 8.7 | 0.00 | 0.01 | 0.00 | 46 | 1014.8 |
| 20260503204016 | 81 | 284 | 0.0 | 6.1 | 0.00 | 0.01 | 0.00 | 49 | 1014.8 |
| 20260503203519 | 80 | 40 | 1.7 | 8.7 | 0.00 | 0.01 | 0.00 | 50 | 1014.9 |
| 20260503203044 | 79 | 65 | 3.5 | 9.6 | 0.00 | 0.01 | 0.00 | 47 | 1015.1 |
| 20260503202517 | 78 | 65 | 4.3 | 9.6 | 0.00 | 0.01 | 0.00 | 50 | 1015.0 |
| 20260503202019 | 79 | 70 | 5.2 | 13.0 | 0.00 | 0.01 | 0.00 | 48 | 1015.1 |
| 20260503201542 | 80 | 67 | 7.0 | 13.0 | 0.00 | 0.01 | 0.00 | 47 | 1015.2 |
| 20260503201019 | 81 | 108 | 1.7 | 7.8 | 0.00 | 0.01 | 0.00 | 48 | 1015.2 |
| 20260503200516 | 78 | 59 | 2.6 | 10.4 | 0.00 | 0.01 | 0.00 | 52 | 1015.2 |
| 20260503200034 | 77 | 61 | 3.5 | 10.4 | 0.00 | 0.01 | 0.00 | 52 | 1015.2 |
| 20260503195518 | 79 | 23 | 3.5 | 8.7 | 0.00 | 0.12 | 0.00 | 52 | 1015.3 |
| 20260503195017 | 79 | 62 | 1.7 | 7.8 | 0.00 | 0.12 | 0.00 | 52 | 1015.3 |
| 20260503194539 | 77 | 72 | 2.6 | 10.4 | 0.00 | 0.12 | 0.00 | 52 | 1015.5 |
| 20260503194016 | 79 | 59 | 6.1 | 10.4 | 0.00 | 0.12 | 0.00 | 50 | 1015.6 |
| 20260503193519 | 79 | 136 | 2.6 | 6.1 | 0.00 | 0.12 | 0.00 | 51 | 1015.7 |
| 20260503193038 | 79 | 95 | 1.7 | 7.0 | 0.00 | 0.12 | 0.00 | 49 | 1015.9 |
| 20260503192517 | 80 | 47 | 2.6 | 7.8 | 0.00 | 0.12 | 0.00 | 49 | 1016.0 |
| 20260503192016 | 79 | 85 | 3.5 | 12.2 | 0.00 | 0.12 | 0.00 | 51 | 1016.0 |
| 20260503191535 | 78 | 99 | 3.5 | 12.2 | 0.00 | 0.12 | 0.00 | 50 | 1016.1 |
| 20260503191017 | 80 | 69 | 2.6 | 8.7 | 0.00 | 0.12 | 0.00 | 49 | 1016.3 |
| 20260503190517 | 79 | 97 | 4.3 | 8.7 | 0.00 | 0.12 | 0.00 | 53 | 1016.3 |
| 20260503190035 | 78 | 28 | 3.5 | 7.8 | 0.00 | 0.12 | 0.00 | 53 | 1016.4 |
| 20260503185516 | 79 | 59 | 3.5 | 7.8 | 0.00 | 0.25 | 0.00 | 51 | 1016.4 |
| 20260503185016 | 80 | 115 | 1.7 | 7.8 | 0.00 | 0.25 | 0.00 | 49 | 1016.5 |
| 20260503184548 | 80 | 76 | 3.5 | 7.8 | 0.00 | 0.25 | 0.00 | 50 | 1016.6 |
| 20260503184017 | 79 | 346 | 2.6 | 7.8 | 0.00 | 0.25 | 0.00 | 52 | 1016.6 |
| 20260503183517 | 77 | 51 | 2.6 | 10.4 | 0.00 | 0.25 | 0.00 | 56 | 1016.7 |
| 20260503183044 | 78 | 101 | 2.6 | 10.4 | 0.00 | 0.25 | 0.00 | 53 | 1016.7 |
| 20260503182516 | 78 | 75 | 3.5 | 10.4 | 0.00 | 0.25 | 0.00 | 53 | 1017.0 |
| 20260503182016 | 77 | 65 | 4.3 | 9.6 | 0.00 | 0.25 | 0.00 | 54 | 1017.0 |
| 20260503181537 | 77 | 90 | 3.5 | 11.3 | 0.00 | 0.25 | 0.00 | 57 | 1016.9 |
| 20260503181017 | 76 | 71 | 2.6 | 11.3 | 0.00 | 0.25 | 0.00 | 57 | 1016.9 |
| 20260503180516 | 79 | 78 | 4.3 | 11.3 | 0.00 | 0.25 | 0.00 | 55 | 1017.0 |
| 20260503180038 | 76 | 87 | 3.5 | 10.4 | 0.00 | 0.25 | 0.00 | 61 | 1017.1 |
| 20260503175515 | 75 | 74 | 2.6 | 10.4 | 0.00 | 0.25 | 0.00 | 60 | 1017.1 |
| 20260503175016 | 77 | 26 | 5.2 | 10.4 | 0.00 | 0.25 | 0.00 | 56 | 1017.1 |
| 20260503174535 | 77 | 272 | 2.6 | 9.6 | 0.00 | 0.25 | 0.00 | 58 | 1017.2 |
| 20260503174023 | 75 | 0 | 1.7 | 10.4 | 0.00 | 0.25 | 0.00 | 62 | 1017.3 |
| 20260503173521 | 76 | 49 | 2.6 | 10.4 | 0.00 | 0.25 | 0.00 | 60 | 1017.2 |
| 20260503173037 | 76 | 84 | 2.6 | 11.3 | 0.00 | 0.25 | 0.00 | 60 | 1017.3 |
| 20260503172519 | 77 | 48 | 3.5 | 11.3 | 0.00 | 0.25 | 0.00 | 61 | 1017.3 |
| 20260503172016 | 75 | 70 | 3.5 | 11.3 | 0.00 | 0.25 | 0.00 | 61 | 1017.5 |
| 20260503171603 | 75 | 82 | 5.2 | 10.4 | 0.00 | 0.25 | 0.00 | 59 | 1017.4 |
| 20260503171016 | 78 | 129 | 4.3 | 11.3 | 0.00 | 0.25 | 0.00 | 58 | 1017.4 |
| 20260503170516 | 76 | 25 | 3.5 | 11.3 | 0.00 | 0.25 | 0.00 | 61 | 1017.5 |
| 20260503150516 | 70 | 42 | 5.2 | 11.3 | 0.00 | 0.25 | 0.00 | 71 | 1018.0 |
| 20260503131019 | 66 | 62 | 2.6 | 9.6 | 0.00 | 0.25 | 0.00 | 82 | 1017.0 |
| 20260503130515 | 66 | 46 | 2.6 | 8.7 | 0.00 | 0.25 | 0.00 | 83 | 1016.8 |
| 20260503110519 | 60 | 0 | 0.0 | 1.7 | 0.00 | 0.25 | 0.00 | 93 | 1016.0 |
| 20260503081539 | 62 | 352 | 0.0 | 1.7 | 0.00 | 0.25 | 0.00 | 91 | 1014.6 |
| 20260503081018 | 62 | 0 | 0.0 | 2.6 | 0.00 | 0.25 | 0.00 | 91 | 1014.7 |
| 20260503080517 | 62 | 192 | 0.9 | 2.6 | 0.00 | 0.25 | 0.00 | 91 | 1014.6 |
| 20260503072518 | 62 | 0 | 0.0 | 2.6 | 0.00 | 0.25 | 0.00 | 91 | 1014.4 |
| 20260503072018 | 62 | 0 | 0.0 | 4.3 | 0.00 | 0.25 | 0.00 | 91 | 1014.5 |
| 20260503071600 | 62 | 144 | 0.0 | 5.2 | 0.00 | 0.25 | 0.00 | 91 | 1014.5 |
| 20260503071018 | 62 | 223 | 0.9 | 5.2 | 0.00 | 0.25 | 0.00 | 91 | 1014.4 |
| 20260503070517 | 62 | 90 | 0.0 | 3.5 | 0.00 | 0.25 | 0.00 | 91 | 1014.3 |
| 20260503055017 | 63 | 32 | 0.9 | 7.0 | 0.00 | 0.25 | 0.00 | 91 | 1014.6 |
| 20260503054542 | 63 | 0 | 0.0 | 3.5 | 0.00 | 0.25 | 0.00 | 91 | 1014.8 |
| 20260503054017 | 63 | 0 | 0.0 | 3.5 | 0.00 | 0.25 | 0.00 | 91 | 1014.7 |
| 20260503053518 | 63 | 43 | 0.9 | 3.5 | 0.00 | 0.25 | 0.00 | 91 | 1014.6 |
| 20260503053038 | 63 | 34 | 0.0 | 5.2 | 0.00 | 0.25 | 0.00 | 91 | 1014.6 |
| 20260503052517 | 64 | 19 | 0.0 | 5.2 | 0.00 | 0.25 | 0.00 | 92 | 1014.5 |
| 20260503052017 | 64 | 25 | 1.7 | 5.2 | 0.00 | 0.25 | 0.00 | 92 | 1014.5 |
| 20260503051536 | 64 | 0 | 0.9 | 4.3 | 0.00 | 0.25 | 0.00 | 92 | 1014.6 |
| 20260503051016 | 64 | 62 | 0.9 | 2.6 | 0.00 | 0.25 | 0.00 | 92 | 1014.4 |
| 20260503050518 | 64 | 0 | 0.0 | 0.9 | 0.00 | 0.25 | 0.00 | 92 | 1014.7 |
| 20260503050041 | 64 | 0 | 0.0 | 1.7 | 0.00 | 0.25 | 0.00 | 92 | 1014.6 |
| 20260503045516 | 64 | 205 | 0.0 | 1.7 | 0.00 | 0.25 | 0.00 | 92 | 1014.6 |
| 20260503045016 | 64 | 0 | 0.0 | 1.7 | 0.00 | 0.25 | 0.00 | 92 | 1014.4 |
| 20260503044545 | 64 | 0 | 0.0 | 1.7 | 0.00 | 0.25 | 0.00 | 92 | 1014.5 |
| 20260503044016 | 64 | 0 | 0.0 | 5.2 | 0.00 | 0.25 | 0.00 | 92 | 1014.5 |
| 20260503043516 | 64 | 0 | 0.0 | 5.2 | 0.00 | 0.25 | 0.00 | 92 | 1014.3 |
| 20260503043044 | 64 | 0 | 0.0 | 1.7 | 0.00 | 0.25 | 0.00 | 92 | 1014.3 |
| 20260503042516 | 64 | 0 | 0.0 | 2.6 | 0.00 | 0.25 | 0.00 | 92 | 1014.3 |
| 20260503042020 | 64 | 278 | 0.0 | 2.6 | 0.00 | 0.25 | 0.00 | 92 | 1014.2 |
| 20260503041534 | 64 | 134 | 0.0 | 2.6 | 0.00 | 0.25 | 0.00 | 93 | 1013.9 |
| 20260503041016 | 64 | 217 | 0.0 | 2.6 | 0.00 | 0.25 | 0.00 | 93 | 1013.9 |
| 20260503040516 | 64 | 200 | 0.0 | 2.6 | 0.00 | 0.25 | 0.00 | 93 | 1013.7 |
| 20260503040040 | 64 | 0 | 0.0 | 4.3 | 0.00 | 0.25 | 0.00 | 93 | 1013.7 |
| 20260503035516 | 64 | 0 | 0.0 | 4.3 | 0.00 | 0.25 | 0.25 | 93 | 1013.7 |
| 20260503035016 | 65 | 0 | 0.9 | 4.3 | 0.00 | 0.25 | 0.25 | 93 | 1013.4 |
| 20260503034536 | 65 | 333 | 0.9 | 4.3 | 0.00 | 0.25 | 0.25 | 93 | 1013.4 |
| 20260503034015 | 66 | 0 | 0.9 | 7.0 | 0.00 | 0.25 | 0.25 | 93 | 1013.1 |
| 20260503033519 | 66 | 327 | 1.7 | 7.0 | 0.00 | 0.25 | 0.25 | 93 | 1013.4 |
| 20260503033032 | 67 | 126 | 0.9 | 3.5 | 0.00 | 0.25 | 0.25 | 93 | 1013.1 |
| 20260503032516 | 67 | 0 | 0.9 | 4.3 | 0.00 | 0.25 | 0.25 | 92 | 1013.1 |
| 20260503032021 | 67 | 0 | 0.9 | 7.8 | 0.00 | 0.25 | 0.25 | 92 | 1013.0 |
| 20260503031534 | 67 | 226 | 1.7 | 7.8 | 0.00 | 0.25 | 0.25 | 93 | 1013.0 |
| 20260503031020 | 68 | 0 | 0.9 | 5.2 | 0.00 | 0.25 | 0.25 | 93 | 1012.6 |
| 20260503030520 | 68 | 329 | 0.9 | 5.2 | 0.00 | 0.25 | 0.25 | 93 | 1012.5 |
| 20260503030032 | 68 | 0 | 0.0 | 1.7 | 0.00 | 0.25 | 0.25 | 93 | 1012.6 |
| 20260503025519 | 68 | 0 | 0.0 | 4.3 | 0.00 | 0.25 | 0.25 | 94 | 1012.4 |
| 20260503025016 | 68 | 0 | 0.9 | 5.2 | 0.00 | 0.25 | 0.25 | 94 | 1012.4 |
| 20260503024534 | 69 | 0 | 0.9 | 5.2 | 0.00 | 0.25 | 0.25 | 94 | 1012.3 |
| 20260503024017 | 69 | 244 | 0.9 | 6.1 | 0.00 | 0.25 | 0.25 | 94 | 1012.3 |
| 20260503023516 | 69 | 286 | 0.9 | 12.2 | 0.00 | 0.25 | 0.25 | 95 | 1012.3 |
| 20260503023041 | 69 | 315 | 2.6 | 12.2 | 0.00 | 0.25 | 0.25 | 95 | 1012.4 |
| 20260503022518 | 70 | 252 | 3.5 | 9.6 | 0.00 | 0.25 | 0.25 | 95 | 1012.3 |
| 20260503022020 | 69 | 245 | 0.9 | 4.3 | 0.00 | 0.25 | 0.25 | 95 | 1012.2 |
| 20260503021537 | 69 | 244 | 1.7 | 4.3 | 0.00 | 0.25 | 0.25 | 95 | 1012.2 |
| 20260503021018 | 69 | 248 | 1.7 | 3.5 | 0.00 | 0.25 | 0.25 | 95 | 1012.0 |
| 20260503020517 | 69 | 246 | 0.9 | 3.5 | 0.00 | 0.25 | 0.25 | 95 | 1012.0 |
| 20260503020038 | 69 | 253 | 0.0 | 0.9 | 0.00 | 0.25 | 0.25 | 95 | 1011.8 |
| 20260503015519 | 69 | 0 | 0.0 | 0.0 | 0.00 | 0.25 | 0.25 | 95 | 1011.5 |
| 20260503015016 | 69 | 0 | 0.0 | 0.9 | 0.00 | 0.25 | 0.25 | 95 | 1011.5 |
| 20260503014533 | 69 | 0 | 0.0 | 0.9 | 0.00 | 0.25 | 0.25 | 95 | 1011.4 |
| 20260503014017 | 69 | 0 | 0.0 | 1.7 | 0.00 | 0.25 | 0.25 | 95 | 1011.2 |
| 20260503013517 | 69 | 0 | 0.0 | 1.7 | 0.00 | 0.25 | 0.25 | 95 | 1011.2 |
| 20260503013034 | 69 | 253 | 0.0 | 1.7 | 0.00 | 0.25 | 0.25 | 95 | 1011.1 |
| 20260503012517 | 69 | 0 | 0.0 | 1.7 | 0.00 | 0.25 | 0.25 | 94 | 1011.0 |
| 20260503012017 | 69 | 0 | 0.0 | 1.7 | 0.00 | 0.25 | 0.25 | 94 | 1010.9 |
| 20260503011548 | 69 | 0 | 0.0 | 0.9 | 0.00 | 0.25 | 0.25 | 94 | 1010.9 |
| 20260503011016 | 69 | 0 | 0.0 | 0.9 | 0.00 | 0.25 | 0.25 | 94 | 1010.9 |
| 20260503010519 | 69 | 253 | 0.0 | 0.9 | 0.00 | 0.25 | 0.25 | 94 | 1010.9 |
| 20260503010042 | 69 | 0 | 0.0 | 1.7 | 0.00 | 0.25 | 0.25 | 94 | 1010.7 |
| 20260503005516 | 69 | 0 | 0.0 | 1.7 | 0.00 | 0.25 | 0.25 | 94 | 1010.7 |
| 20260503005017 | 69 | 253 | 0.0 | 1.7 | 0.00 | 0.25 | 0.25 | 94 | 1010.8 |
| 20260503004600 | 69 | 0 | 0.0 | 1.7 | 0.00 | 0.25 | 0.25 | 94 | 1010.4 |